Location: Observatorio Las Palmas
(29.0667°N, 110.9333°W)
Time: 17:27:11
(UTC-07:00)

Skynet4D Del rocket - Visible Passes

Search period start: 30 April 2016 00:00
Search period end: 10 May 2016 00:00
Orbit: 763 x 1291 km, 26.9° (Epoch: 29 April)

Date Brightness Start Highest point End Pass type
(mag) Time Alt. Az. Time Alt. Az. Time Alt. Az.
30 Apr 6.5 01:26:52 16° E 01:26:52 16° E 01:28:16 10° E visible
30 Apr 4.4 03:12:28 68° SW 03:13:28 75° S 03:21:51 10° E visible
30 Apr 4.7 04:58:32 10° W 05:06:51 72° S 05:15:01 10° ESE visible
01 May 5.5 02:05:27 35° E 02:05:27 35° E 02:10:00 10° E visible
01 May 4.5 03:51:04 35° W 03:55:03 77° S 04:03:26 10° E visible
02 May 4.5 02:44:05 70° SE 02:44:05 70° SE 02:51:38 10° E visible
02 May 4.6 04:29:42 16° W 04:36:36 68° S 04:44:53 10° ESE visible
03 May 6.2 01:37:11 22° E 01:37:11 22° E 01:39:43 10° E visible
03 May 4.4 03:22:48 54° WSW 03:24:50 76° S 03:33:13 10° ESE visible
03 May 4.9 05:10:05 10° W 05:18:03 52° SSW 05:26:01 10° SE visible
04 May 5.2 02:15:59 44° ESE 02:15:59 44° ESE 02:21:22 10° E visible
04 May 4.6 04:01:37 27° W 04:06:21 64° SSW 04:14:38 10° ESE visible
05 May 6.7 01:09:16 11° E 01:09:16 11° E 01:09:24 10° E visible
05 May 4.3 02:54:54 72° S 02:54:54 72° S 03:02:56 10° ESE visible
05 May 4.9 04:40:33 12° W 04:47:46 47° SSW 04:55:40 10° SE visible
06 May 6.0 01:48:19 23° E 01:48:19 23° E 01:51:03 10° E visible
06 May 4.5 03:33:58 46° WSW 03:36:07 59° SSW 03:44:17 10° ESE visible
06 May 5.7 20:43:00 10° S 20:43:26 11° S 20:43:26 11° S visible
07 May 5.2 02:27:32 40° ESE 02:27:32 40° ESE 02:32:35 10° ESE visible
07 May 4.9 04:13:12 24° WSW 04:17:30 41° SSW 04:25:10 10° SE visible
07 May 5.8 21:22:35 10° SW 21:23:15 13° SW 21:23:15 13° SW visible
08 May 4.7 03:06:55 50° S 03:06:55 50° S 03:13:51 10° ESE visible
08 May 5.5 04:52:36 10° WSW 04:58:46 26° SSW 05:05:18 10° SSE visible
08 May 4.9 20:12:49 10° SSW 20:16:48 20° SSE 20:17:19 20° SE visible
09 May 6.3 02:00:47 16° ESE 02:00:47 16° ESE 02:02:12 10° ESE visible
09 May 4.9 03:46:29 35° SW 03:47:16 35° SSW 03:54:34 10° SE visible
09 May 4.4 20:52:45 10° SW 20:57:00 34° S 20:57:00 34° S visible
